Regional Weather Roundup
Issued by NWS Green Bay, WI

Home | Current Version | Previous Version | Graphics & Text | Print | Product List | Glossary Off
Versions: 1 2 3 4 5 6 7 8 9 10 11 12 13 14 15 16 17 18 19 20 21 22 23 24 25 26 27 28 29 30 31 32 33 34 35 36 37 38 39 40 41 42 43 44 45 46 47 48 49 50

000
ASUS43 KGRB 301259
RWRGRB

NORTH-CENTRAL AND NORTHEAST WISCONSIN REGIONAL WEATHER ROUNDUP
NATIONAL WEATHER SERVICE GREEN BAY WI
800 AM CDT SAT AUG 30 2014

WIZ005-009-010>012-018-019-301400-
NORTH CENTRAL WISCONSIN

CITY           SKY/WX    TMP DP  RH WIND       PRES   REMARKS
IRONWOOD       NOT AVBL
MANITOWISH WTR NOT AVBL
ARBOR VITAE    NOT AVBL
EAGLE RIVER    NOT AVBL
LAND O LAKES   NOT AVBL
RHINELANDER    CLOUDY    64  63  96 N3        29.79S
PHILLIPS       NOT AVBL
ANTIGO         NOT AVBL
TOMAHAWK       NOT AVBL
MERRILL        NOT AVBL
$$

WIZ013-073-301400-
NORTHEAST WISCONSIN

CITY           SKY/WX    TMP DP  RH WIND       PRES   REMARKS
IRON MOUNTAIN  LGT RAIN  65  63  93 MISG      29.76S
MARINETTE      CLOUDY    66  64  94 SE5       29.74S
$$

WIZ017-030-035>037-045-301400-
CENTRAL WISCONSIN

CITY           SKY/WX    TMP DP  RH WIND       PRES   REMARKS
MEDFORD        NOT AVBL
WAUSAU         CLOUDY    66  65  96 N3        29.75S
MOSINEE        CLOUDY    64  64 100 N3        29.77S FOG
MARSHFIELD     CLOUDY    67  65  93 NW5       29.77S
WISC RAPIDS    CLOUDY    67  67 100 W5        29.77R
STEVENS POINT  NOT AVBL
WAUPACA        NOT AVBL
SHAWANO        CLOUDY    69  67  94 CALM      29.74F
CLINTONVILLE   NOT AVBL
$$

WIZ038-039-048-051-301400-
FOX VALLEY

CITY           SKY/WX    TMP DP  RH WIND       PRES   REMARKS
NWS GREEN BAY  PTSUNNY   70  69  97 S5        29.75S FOG
APPLETON       PTSUNNY   70  68  94 SW8       29.76S
OSHKOSH        MOSUNNY   71  68  90 S10       29.76S
FOND DU LAC    PTSUNNY   71  67  87 SW8       29.77S
$$

WIZ022-050-052-301400-
EAST CENTRAL WISCONSIN

CITY           SKY/WX    TMP DP  RH WIND       PRES   REMARKS
STURGEON BAY   PTSUNNY   68  66  94 SE5       29.75S
MANITOWOC      NOT AVBL
SHEBOYGAN      MOSUNNY   71  67  87 SW6       29.77F
$$

LMZ563-521-522-541>543-301400-
LAKESHORE

STATION/POSITION TIME  TEMP    WIND        PRES    VSBY  WAVE
                       AIR SEA DIR/SP/G                  HT/PER
                 (UTC) (F)     (DEG/KT/KT) (MB)    (MI)  (FT/S)
SHEBOYGAN LKSHOR 1200   70 58  190/  9/ 10 1008.3R
KEWAUNEE LKSHORE 1200   63     190/  6/  7 1006.7F
TWO RIVERS CG    1200      73              1008.4   1 1/4  3
NORTHPORT PIER   1200   67     280/  3/  5 1007.8R
N MID LAKE BUOY  1200   66 65  180/  8/ 10 1007.8F         3/ 6
S GREEN BAY BUOY 1200   69     VRB  8/ 10  1008.3F
SISTER BAY LKSHO 1200   67        CALM       N/A
STURGEON BAY CG  1200   64 61  190/  3     1009.0      6   1
CHAMBERS ISLAND  1200   68      50/  5/  7 1007.5F
MENOMINEE LKSHOR 1200   68      80/  4/  5 1007.7F
$$


USA.gov is the U.S. government's official web portal to all federal, state and local government web resources and services.